Location: La Tine
(46.4708°N, 7.0525°E)
Time: 06:39:19
(UTC+00:00)

Nadezhda 4 Rocket - Pass Details

Date: 18 September 2020
Orbit: 949 x 993 km, 82.9° (Epoch: 23 October)

Event Time Altitude Azimuth Distance (km) Brightness Sun altitude
Rises 18:50:46 0° 354° (N) 3,639 7.3 -13.4°
Reaches altitude 10° 18:53:22 10° 360° (N) 2,687 6.5 -13.8°
Maximum altitude 18:59:20 52° 76° (ENE) 1,166 4.1 -14.8°
Enters shadow 19:04:42 13° 151° (SSE) 2,465 5.7 -15.7°
